This demonstration page uses our WeatherBlox Daily Observations layout. Learn more.

Left ArrowRight Arrow

39.12711, -84.51439

Hourly Observations for September 20, 2016

Temp ( °F °C ) Dew Point ( °F °C ) Humidity (%) Winds ( mph kmh ) Pressure ( in mb ) Visibility ( mi km ) Precip ( " mm )
12:53 am 00:53 Clear with Mist and Fog 62 16.7 62 16.7 100 100 Calm 30.11 1020 5 8 0.00 0.00
1:53 am 01:53 Clear with Mist and Fog 61 16.1 61 16.1 100 100 Calm 30.10 1019 5 8 0.00 0.00
2:15 am 02:15 Clear with Mist and Fog 61 16.1 61 16.1 100 100 Calm 30.09 1019 2 2 0.00 0.00
2:23 am 02:23 Clear with Mist and Fog 60 15.6 60 15.6 100 100 Calm 30.09 1019 1 1 0.00 0.00
2:27 am 02:27 Clear with Mist and Fog 61 16.1 61 16.1 100 100 Calm 30.09 1019 3 4 0.00 0.00
2:34 am 02:34 Clear with Mist and Fog 61 16 61 16 100 100 Calm 30.09 1019 5 8 0.00 0.00
2:53 am 02:53 Clear with Mist and Fog 61 16.1 61 16.1 100 100 Calm 30.11 1020 4 6 0.00 0.00
3:07 am 03:07 Clear with Mist and Fog 60 15.6 60 15.6 100 100 Calm 30.09 1019 2 2 0.00 0.00
3:16 am 03:16 Clear with Mist and Fog 61 16 61 16 100 100 Calm 30.09 1019 1 1 0.00 0.00
3:21 am 03:21 Clear with Mist and Fog 60 15.6 60 15.6 100 100 Calm 30.09 1019 2 3 0.00 0.00
3:31 am 03:31 Clear with Mist and Fog 60 15.6 60 15.6 100 100 Calm 30.09 1019 2 2 0.00 0.00
3:35 am 03:35 Clear with Mist and Fog 60 15.6 60 15.6 100 100 Calm 30.09 1019 3 5 0.00 0.00
3:53 am 03:53 Clear with Mist and Fog 60 15.6 60 15.6 100 100 NE 3 6 30.12 1020 2 3 0.00 0.00
4:05 am 04:05 Clear with Mist and Fog 60 15.6 60 15.6 100 100 NNE 3 6 30.09 1019 5 8 0.00 0.00
4:21 am 04:21 Clear with Mist and Fog 60 15.6 60 15.6 100 100 Calm 30.09 1019 2 3 0.00 0.00
4:27 am 04:27 Clear with Mist and Fog 59 15 59 15 100 100 Calm 30.15 1021 1 1 0.00 0.00
4:37 am 04:37 Clear with Mist and Fog 59 15 59 15 100 100 Calm 30.15 1021 2 3 0.00 0.00
4:44 am 04:44 Clear with Mist and Fog 61 16 61 16 100 100 Calm 30.12 1020 4 6 0.00 0.00
4:53 am 04:53 Clear with Mist and Fog 60 15.6 60 15.6 100 100 NE 3 6 30.13 1020 4 6 0.00 0.00
5:00 am 05:00 Clear with Mist and Fog 59 15 59 15 100 100 ENE 3 6 30.15 1021 2 3 0.00 0.00
5:11 am 05:11 Clear with Mist and Fog 59 15 59 15 100 100 ENE 3 6 30.15 1021 1 1 0.00 0.00
5:20 am 05:20 Clear with Mist and Fog 59 15 59 15 100 100 NE 3 6 30.15 1021 2 3 0.00 0.00
5:42 am 05:42 Clear with Mist and Fog 58 14.4 58 14.4 100 100 NE 3 6 30.15 1021 1 2 0.00 0.00
5:51 am 05:51 Clear with Mist and Fog 59 15 59 15 100 100 NE 3 6 30.15 1021 3 5 0.00 0.00
5:53 am 05:53 Clear with Mist and Fog 59 15 59 15 100 100 Calm 30.14 1021 4 6 0.00 0.00
6:03 am 06:03 Clear with Mist and Fog 59 15 59 15 100 100 Calm 30.15 1021 2 3 0.00 0.00
6:17 am 06:17 Clear with Mist and Fog 59 15 59 15 100 100 Calm 30.15 1021 4 6 0.00 0.00
6:40 am 06:40 Clear with Mist and Fog 57 14 57 14 100 100 Calm 30.15 1021 2 3 0.00 0.00
6:50 am 06:50 Clear with Mist and Fog 57 14 57 14 100 100 Calm 30.15 1021 1 1 0.00 0.00
6:53 am 06:53 Clear with Fog 58 14.4 58 14.4 100 100 Calm 30.14 1021 4 6 0.00 0.00
6:58 am 06:58 Mostly Cloudy with Mist and Fog 57 14 57 14 100 100 Calm 30.15 1021 1 1 0.00 0.00
7:06 am 07:06 Clear with Patchy Fog 59 15 59 15 100 100 Calm 30.15 1021 4 6 0.00 0.00
7:53 am 07:53 Sunny with Patchy Fog 59 15 59 15 100 100 Calm 30.16 1022 4 6 0.00 0.00
8:39 am 08:39 Sunny with Patchy Fog 62 16.7 62 16.7 100 100 Calm 30.15 1021 3 4 0.00 0.00
8:46 am 08:46 Sunny with Patchy Fog 62 16.7 62 16.7 100 100 Calm 30.15 1021 4 6 0.00 0.00
8:53 am 08:53 Sunny with Mist and Fog 64 17.8 64 17.8 100 100 Calm 30.17 1022 6 10 0.00 0.00
9:53 am 09:53 Sunny with Mist and Fog 69 20.6 66 18.9 90 90 Calm 30.18 1022 6 10 0.00 0.00
10:53 am 10:53 Sunny 75 23.9 67 19.4 76 76 Calm 30.18 1022 9 14 0.00 0.00
11:53 am 11:53 Sunny 79 26.1 61 16.1 54 54 Calm 30.17 1022 10 16 0.00 0.00
12:53 pm 12:53 Sunny 85 29.4 59 15 42 42 Calm 30.15 1021 10 16 0.00 0.00
1:53 pm 13:53 Sunny 85 29.4 57 13.9 39 39 VRB 3 6 30.14 1021 10 16 0.00 0.00
2:53 pm 14:53 Sunny 87 30.6 57 13.9 36 36 NE 8 13 30.13 1020 10 16 0.00 0.00
3:53 pm 15:53 Sunny 87 30.6 57 13.9 36 36 ENE 6 9 30.12 1020 10 16 0.00 0.00
4:53 pm 16:53 Sunny 87 30.6 57 13.9 36 36 NNE 6 9 30.11 1020 10 16 0.00 0.00
5:53 pm 17:53 Sunny 85 29.4 59 15 42 42 NE 6 9 30.11 1020 10 16 0.00 0.00
6:53 pm 18:53 Sunny 79 26.1 68 20 69 69 Calm 30.12 1020 10 16 0.00 0.00
7:53 pm 19:53 Clear 71 21.7 67 19.4 87 87 Calm 30.12 1020 10 16 0.00 0.00
8:53 pm 20:53 Clear 67 19.4 65 18.3 93 93 Calm 30.14 1021 10 16 0.00 0.00
9:53 pm 21:53 Clear 65 18.3 64 17.8 97 97 Calm 30.15 1021 10 16 0.00 0.00
10:53 pm 22:53 Clear 64 17.8 64 17.8 100 100 NE 3 6 30.14 1021 10 16 0.00 0.00
11:53 pm 23:53 Clear 63 17.2 63 17.2 100 100 Calm 30.15 1021 8 13 0.00 0.00

Powered by AerisWeather